DAL3021 KCHS-KPNS

Flight info

Callsign DAL3021
Flight time N/A
Altitude 34000
Route STUNO1 DBN DCT LUCKK DCT OCNNR DCT KRSTO DCT
Aircraft B738/M-SDE2E3FGHIRWXY/LB1

Departure

Time 2026-04-29 00:12
Airport Charleston International Airport (KCHS)

Arrival

Time N/A
Airport Pensacola International Airport (KPNS)
Time Latitude Longitude Altitude Speed Heading
2026-04-28 23:49 32.88551 -80.03536 37 ft 0 kts 246°
2026-04-28 23:57 32.88554 -80.03529 36 ft 3 kts 246°
2026-04-28 23:57 32.88561 -80.03508 34 ft 3 kts 246°
2026-04-28 23:57 32.88570 -80.03488 33 ft 3 kts 215°
2026-04-28 23:57 32.88587 -80.03483 33 ft 2 kts 154°
2026-04-28 23:58 32.88588 -80.03484 33 ft 0 kts 154°
2026-04-29 00:01 32.88586 -80.03473 36 ft 3 kts 89°
2026-04-29 00:02 32.88599 -80.03453 35 ft 3 kts 43°
2026-04-29 00:02 32.88618 -80.03438 35 ft 3 kts 31°
2026-04-29 00:02 32.88642 -80.03429 35 ft 4 kts 10°
2026-04-29 00:02 32.88668 -80.03435 36 ft 4 kts 328°
2026-04-29 00:03 32.88692 -80.03458 37 ft 4 kts 316°
2026-04-29 00:03 32.88709 -80.03488 35 ft 4 kts 297°
2026-04-29 00:03 32.88720 -80.03521 37 ft 4 kts 290°
2026-04-29 00:03 32.88730 -80.03554 35 ft 4 kts 290°
2026-04-29 00:04 32.88741 -80.03587 37 ft 4 kts 290°
2026-04-29 00:04 32.88754 -80.03618 37 ft 4 kts 309°
2026-04-29 00:04 32.88782 -80.03633 37 ft 5 kts 352°
2026-04-29 00:04 32.88814 -80.03632 38 ft 5 kts
2026-04-29 00:05 32.88847 -80.03627 39 ft 5 kts
2026-04-29 00:05 32.88881 -80.03621 40 ft 8 kts
2026-04-29 00:05 32.88958 -80.03609 43 ft 14 kts
2026-04-29 00:05 32.89080 -80.03598 45 ft 20 kts
2026-04-29 00:06 32.89228 -80.03593 46 ft 22 kts
2026-04-29 00:06 32.89395 -80.03588 46 ft 25 kts
2026-04-29 00:06 32.89462 -80.03586 46 ft 0 kts
2026-04-29 00:07 32.89491 -80.03585 45 ft 10 kts
2026-04-29 00:07 32.89584 -80.03582 45 ft 18 kts 355°
2026-04-29 00:07 32.89646 -80.03697 44 ft 19 kts 278°
2026-04-29 00:07 32.89660 -80.03854 49 ft 19 kts 277°
2026-04-29 00:08 32.89675 -80.04014 53 ft 20 kts 276°
2026-04-29 00:08 32.89690 -80.04192 52 ft 22 kts 276°
2026-04-29 00:08 32.89712 -80.04385 55 ft 25 kts 278°
2026-04-29 00:08 32.89866 -80.04450 52 ft 28 kts
2026-04-29 00:09 32.90070 -80.04446 51 ft 31 kts
2026-04-29 00:09 32.90298 -80.04435 50 ft 34 kts
2026-04-29 00:09 32.90519 -80.04521 52 ft 35 kts 337°
2026-04-29 00:09 32.90724 -80.04677 56 ft 34 kts 325°
2026-04-29 00:10 32.90915 -80.04823 51 ft 30 kts 329°
2026-04-29 00:10 32.91088 -80.04954 57 ft 29 kts 328°
2026-04-29 00:10 32.91193 -80.04988 56 ft 2 kts 41°
2026-04-29 00:10 32.91204 -80.04973 58 ft 2 kts 51°
2026-04-29 00:11 32.91213 -80.04957 54 ft 2 kts 59°
2026-04-29 00:11 32.91234 -80.04918 57 ft 11 kts 56°
2026-04-29 00:11 32.91190 -80.04726 63 ft 22 kts 150°
2026-04-29 00:12 32.90885 -80.04500 61 ft 86 kts 147°
2026-04-29 00:12 32.90194 -80.03974 55 ft 147 kts 147°
2026-04-29 00:12 32.89199 -80.03244 275 ft 178 kts 148°
2026-04-29 00:12 32.88082 -80.02514 781 ft 191 kts 163°
2026-04-29 00:13 32.86851 -80.02551 1547 ft 172 kts 214°
2026-04-29 00:13 32.86109 -80.03630 2070 ft 178 kts 251°
2026-04-29 00:13 32.85932 -80.05167 2310 ft 201 kts 268°
2026-04-29 00:13 32.86007 -80.06980 2267 ft 236 kts 277°
2026-04-29 00:14 32.86331 -80.08966 2624 ft 254 kts 282°
2026-04-29 00:14 32.86802 -80.11090 2975 ft 272 kts 285°
2026-04-29 00:14 32.87333 -80.13303 3470 ft 284 kts 281°
2026-04-29 00:14 32.87392 -80.15659 4154 ft 284 kts 266°
2026-04-29 00:15 32.87351 -80.17946 5289 ft 270 kts 275°
2026-04-29 00:15 32.87532 -80.20122 6293 ft 259 kts 279°
2026-04-29 00:15 32.87858 -80.22215 7091 ft 256 kts 282°
2026-04-29 00:15 32.88248 -80.24265 7702 ft 259 kts 284°
2026-04-29 00:16 32.88675 -80.26359 8316 ft 261 kts 284°
2026-04-29 00:16 32.89117 -80.28466 8922 ft 264 kts 285°
2026-04-29 00:16 32.89571 -80.30592 9548 ft 266 kts 285°
2026-04-29 00:16 32.90032 -80.32736 10065 ft 273 kts 285°
2026-04-29 00:17 32.90524 -80.35012 10107 ft 295 kts 285°
2026-04-29 00:17 32.91054 -80.37464 10139 ft 317 kts 285°
2026-04-29 00:17 32.91618 -80.40062 10122 ft 328 kts 285°
2026-04-29 00:17 32.92206 -80.42699 10123 ft 329 kts 285°
2026-04-29 00:18 32.92798 -80.45331 10105 ft 328 kts 285°
2026-04-29 00:18 32.93387 -80.47957 10107 ft 327 kts 285°
2026-04-29 00:18 32.93948 -80.50580 10106 ft 327 kts 282°
2026-04-29 00:18 32.94267 -80.53198 10643 ft 321 kts 278°
2026-04-29 00:19 32.94496 -80.55849 11227 ft 322 kts 277°
2026-04-29 00:19 32.94712 -80.58503 11836 ft 322 kts 277°
2026-04-29 00:19 32.94935 -80.61155 12460 ft 322 kts 277°
2026-04-29 00:19 32.95167 -80.63802 13117 ft 321 kts 277°
2026-04-29 00:20 32.95407 -80.66443 13768 ft 320 kts 278°
2026-04-29 00:20 32.95650 -80.69073 14374 ft 318 kts 278°
2026-04-29 00:20 32.95893 -80.71685 14990 ft 316 kts 278°
2026-04-29 00:20 32.96135 -80.74276 15589 ft 314 kts 278°
2026-04-29 00:21 32.96377 -80.76854 16212 ft 311 kts 278°
2026-04-29 00:21 32.96615 -80.79402 16847 ft 308 kts 279°
2026-04-29 00:21 32.96852 -80.81933 17435 ft 308 kts 279°
2026-04-29 00:21 32.97095 -80.84525 17512 ft 324 kts 279°
2026-04-29 00:22 32.97352 -80.87256 17548 ft 340 kts 279°
2026-04-29 00:22 32.97435 -80.90142 17517 ft 360 kts 264°
2026-04-29 00:22 32.96874 -80.93123 17557 ft 377 kts 259°
2026-04-29 00:22 32.96220 -80.96207 17544 ft 389 kts 259°
2026-04-29 00:23 32.95555 -80.99313 18100 ft 385 kts 259°
2026-04-29 00:23 32.94896 -81.02404 18566 ft 386 kts 259°
2026-04-29 00:23 32.94251 -81.05462 19013 ft 385 kts 259°
2026-04-29 00:23 32.93605 -81.08551 19470 ft 385 kts 259°
2026-04-29 00:24 32.92961 -81.11646 19933 ft 384 kts 260°
2026-04-29 00:24 32.92323 -81.14726 20409 ft 383 kts 260°
2026-04-29 00:24 32.91686 -81.17800 20879 ft 382 kts 260°
2026-04-29 00:24 32.91049 -81.20872 21380 ft 381 kts 260°
2026-04-29 00:25 32.90416 -81.23927 21876 ft 380 kts 260°
2026-04-29 00:25 32.89785 -81.26968 22368 ft 378 kts 260°
2026-04-29 00:25 32.89155 -81.29997 22889 ft 376 kts 260°
2026-04-29 00:25 32.88528 -81.33012 23405 ft 374 kts 260°
2026-04-29 00:26 32.87905 -81.35999 23892 ft 371 kts 259°
2026-04-29 00:26 32.87285 -81.38972 24331 ft 368 kts 259°
2026-04-29 00:26 32.86668 -81.41923 24771 ft 366 kts 259°
2026-04-29 00:26 32.86058 -81.44843 25206 ft 363 kts 259°
2026-04-29 00:27 32.85451 -81.47741 25661 ft 359 kts 259°
2026-04-29 00:27 32.84856 -81.50576 26115 ft 356 kts 259°
2026-04-29 00:27 32.84260 -81.53416 26582 ft 351 kts 259°
2026-04-29 00:27 32.83672 -81.56214 27055 ft 347 kts 258°
2026-04-29 00:28 32.83091 -81.58976 27558 ft 341 kts 258°
2026-04-29 00:28 32.82518 -81.61696 28044 ft 335 kts 258°
2026-04-29 00:28 32.81955 -81.64364 28537 ft 329 kts 258°
2026-04-29 00:28 32.81395 -81.67021 28670 ft 335 kts 258°
2026-04-29 00:29 32.80824 -81.69732 28743 ft 341 kts 258°
2026-04-29 00:29 32.79646 -81.75305 28874 ft 354 kts 258°
2026-04-29 00:30 32.78426 -81.81059 29024 ft 367 kts 257°
2026-04-29 00:30 32.78012 -81.83006 29195 ft 366 kts 257°
2026-04-29 00:30 32.77177 -81.86928 29589 ft 366 kts 257°
2026-04-29 00:30 32.76551 -81.89861 29887 ft 366 kts 257°
2026-04-29 00:31 32.75926 -81.92785 30231 ft 364 kts 257°
2026-04-29 00:31 32.75307 -81.95682 30577 ft 360 kts 257°
2026-04-29 00:31 32.74692 -81.98553 30910 ft 356 kts 257°
2026-04-29 00:31 32.74084 -82.01390 31254 ft 352 kts 257°
2026-04-29 00:32 32.73492 -82.04151 31593 ft 347 kts 257°
2026-04-29 00:32 32.72897 -82.06920 31814 ft 347 kts 257°
2026-04-29 00:32 32.72290 -82.09749 31598 ft 359 kts 257°
2026-04-29 00:33 32.71032 -82.15604 31636 ft 370 kts 257°
2026-04-29 00:33 32.69738 -82.21599 31721 ft 379 kts 257°
2026-04-29 00:34 32.68409 -82.27741 31807 ft 389 kts 257°
2026-04-29 00:34 32.67040 -82.34049 31302 ft 398 kts 257°
2026-04-29 00:34 32.66345 -82.37245 30639 ft 404 kts 257°
2026-04-29 00:35 32.65635 -82.40509 30473 ft 412 kts 256°
2026-04-29 00:35 32.64909 -82.43839 30368 ft 421 kts 256°
2026-04-29 00:35 32.64167 -82.47240 30260 ft 430 kts 256°
2026-04-29 00:35 32.63411 -82.50702 30158 ft 436 kts 256°
2026-04-29 00:36 32.62645 -82.54197 30116 ft 437 kts 256°
2026-04-29 00:36 32.61125 -82.61121 30098 ft 430 kts 256°
2026-04-29 00:37 32.59625 -82.67940 30119 ft 430 kts 256°
2026-04-29 00:37 32.58109 -82.74817 30128 ft 432 kts 256°
2026-04-29 00:38 32.56584 -82.81715 30156 ft 432 kts 256°
2026-04-29 00:38 32.55271 -82.88674 30140 ft 432 kts 260°
2026-04-29 00:39 32.54195 -82.95668 30142 ft 431 kts 261°
2026-04-29 00:39 32.53119 -83.02645 30143 ft 430 kts 260°
2026-04-29 00:40 32.52012 -83.09594 30138 ft 429 kts 260°
2026-04-29 00:40 32.50896 -83.16478 30135 ft 427 kts 260°
2026-04-29 00:41 32.49768 -83.23386 30123 ft 426 kts 260°
2026-04-29 00:41 32.48641 -83.30270 30117 ft 425 kts 260°
2026-04-29 00:42 32.47512 -83.37140 30110 ft 425 kts 260°
2026-04-29 00:42 32.46381 -83.43999 30112 ft 424 kts 260°
2026-04-29 00:43 32.45248 -83.50853 30114 ft 424 kts 260°
2026-04-29 00:43 32.44105 -83.57738 30131 ft 429 kts 260°
2026-04-29 00:44 32.42942 -83.64718 30128 ft 432 kts 260°
2026-04-29 00:44 32.41775 -83.71698 30132 ft 432 kts 260°
2026-04-29 00:45 32.40603 -83.78683 30135 ft 432 kts 259°
2026-04-29 00:45 32.39428 -83.85661 30130 ft 432 kts 259°
2026-04-29 00:46 32.38252 -83.92625 30128 ft 438 kts 260°
2026-04-29 00:46 32.37050 -83.99711 30126 ft 440 kts 260°
2026-04-29 00:47 32.36035 -84.05677 30122 ft 442 kts 260°
2026-04-29 00:47 32.34825 -84.12767 30116 ft 443 kts 260°
2026-04-29 00:48 32.33604 -84.19897 30095 ft 442 kts 260°
2026-04-29 00:48 32.32381 -84.27015 30093 ft 440 kts 260°
2026-04-29 00:49 32.31158 -84.34105 30100 ft 438 kts 260°
2026-04-29 00:49 32.29262 -84.40938 30122 ft 440 kts 246°
2026-04-29 00:50 32.25878 -84.46969 30121 ft 443 kts 234°
2026-04-29 00:50 32.21955 -84.52578 30106 ft 442 kts 233°